Waarnemingen

Advertentie
Mijn weer
Leutkirch-Herlazhofen, Duitsland (10945): temperatuur & dauwpunt: 13.10.2018 11:00:00 - 19.10.2018 11:00:00 (CEST)Leutkirch-Herlazhofen, Duitsland (10945): temperatuur 5cm & temperatuur -5cm: 13.10.2018 11:00:00 - 19.10.2018 11:00:00 (CEST)Leutkirch-Herlazhofen, Duitsland (10945): temperatuur -20cm & temperatuur -100cm: 13.10.2018 11:00:00 - 19.10.2018 11:00:00 (CEST)Leutkirch-Herlazhofen, Duitsland (10945): windsnelheid & windstoten: 13.10.2018 11:00:00 - 19.10.2018 11:00:00 (CEST)Leutkirch-Herlazhofen, Duitsland (10945): windrichting: 13.10.2018 11:00:00 - 19.10.2018 11:00:00 (CEST)Leutkirch-Herlazhofen, Duitsland (10945): luchtdruk: 13.10.2018 11:00:00 - 19.10.2018 11:00:00 (CEST)Leutkirch-Herlazhofen, Duitsland (10945): zicht: 13.10.2018 11:00:00 - 19.10.2018 11:00:00 (CEST)Leutkirch-Herlazhofen, Duitsland (10945): Zonneschijnduur: 13.10.2018 11:00:00 - 19.10.2018 11:00:00 (CEST)Leutkirch-Herlazhofen, Duitsland (10945): neerslag: 13.10.2018 11:00:00 - 19.10.2018 11:00:00 (CEST)
Datum & Tijd tt [°C] td [°C] tt 5cm [°C] tt -5cm [°C] tt -20cm [°C] tt -100cm [°C] ff [km/u] ff [kn] fx [km/u] fx [kn] dd ppp [hPa] vv [km] sd [min] rr [mm]
19.10.2018 11:00:00 8,3 8,1 9,9 10,2 11,0 14,0 7 4 16 9 NO 1023,2 0,5 0 0,0
19.10.2018 10:00:00 7,3 7,2 8,5 9,2 11,0 14,0 10 5 16 9 NNO 1023,1 0,2 0 0,0
19.10.2018 09:00:00 6,7 6,7 7,2 8,7 11,0 14,0 5 3 11 6 NNO 1022,8 0,1 0 0,0
19.10.2018 08:00:00 6,4 6,3 6,5 8,4 11,1 14,0 5 3 12 6 NNO 1022,3 0,1 0 0,0
19.10.2018 07:00:00 6,7 6,6 6,7 8,2 11,2 14,0 6 3 13 7 NNO 1021,7 0,2 0 0,0
19.10.2018 06:00:00 6,8 6,7 6,7 7,8 11,4 14,0 5 3 15 8 N 1021,5 0,2 0 0,0
19.10.2018 05:00:00 7,2 6,8 4,9 7,4 11,6 14,0 7 4 13 7 NO 1021,0 1,4 0 0,0
19.10.2018 04:00:00 6,6 6,5 3,2 7,5 11,8 14,0 4 2 9 5 ONO 1021,5 1,8 0 0,0
19.10.2018 03:00:00 4,8 4,5 2,0 7,9 12,0 14,0 2 1 4 2 ZZO 1022,0 1,4 0 0,0
19.10.2018 02:00:00 4,1 3,5 1,3 8,5 12,2 14,0 3 2 7 4 NW 1022,7 2,0 0 0,0
19.10.2018 01:00:00 5,5 4,8 1,4 9,1 12,4 14,0 2 1 10 5 WNW 1022,1 2,1 0 0,0
19.10.2018 00:00:00 9,0 7,2 5,4 9,7 12,5 14,0 6 4 13 7 NO 1021,1 4,8 0 0,0
18.10.2018 23:00:00 7,7 6,7 4,0 10,4 12,7 14,0 6 3 9 5 NNO 1021,9 4,9 0 0,0
18.10.2018 22:00:00 10,8 7,5 7,6 11,2 12,8 14,0 8 4 20 11 NO 1020,7 7 0 0,0
18.10.2018 21:00:00 12,1 8,1 9,1 11,7 12,9 14,0 10 6 20 11 ONO 1019,9 9 0 0,0
18.10.2018 20:00:00 13,3 8,4 10,7 12,3 12,9 14,0 13 7 22 12 ONO 1019,4 10 0 0,0
18.10.2018 19:00:00 13,8 8,2 11,3 13,3 12,9 14,1 12 6 20 11 NO 1018,8 12 0 0,0
18.10.2018 18:00:00 15,2 8,5 13,5 14,7 12,7 14,1 11 6 22 12 NO 1017,7 12 48 0,0
18.10.2018 17:00:00 16,6 8,4 17,0 15,7 12,4 14,1 14 7 26 14 NO 1017,2 13 60 0,0
18.10.2018 16:00:00 16,9 8,5 18,2 16,2 12,1 14,1 16 9 27 14 NO 1017,2 14 60 0,0
18.10.2018 15:00:00 16,9 8,3 18,9 16,2 11,7 14,1 16 9 28 15 NNO 1017,3 13 60 0,0
18.10.2018 14:00:00 16,9 8,7 19,4 15,6 11,3 14,1 17 9 27 15 NO 1017,5 8 60 0,0
18.10.2018 13:00:00 16,1 9,8 19,8 14,0 11,1 14,1 13 7 22 12 NO 1018,1 11 60 0,0
18.10.2018 12:00:00 14,0 9,0 17,4 12,1 10,9 14,1 10 6 17 9 NNO 1018,9 10 60 0,0
18.10.2018 11:00:00 11,9 7,6 14,5 10,0 10,8 14,1 11 6 18 10 NNO 1019,4 10 60 0,0
18.10.2018 10:00:00 9,0 6,8 8,9 8,4 10,9 14,1 9 5 15 8 NNO 1020,2 6 18 0,0
18.10.2018 09:00:00 8,2 6,5 6,9 7,4 11,0 14,1 5 3 13 7 N 1020,2 6 5 0,0
18.10.2018 08:00:00 7,4 6,3 4,2 7,0 11,2 14,1 4 2 8 4 N 1019,8 7 0 0,0
18.10.2018 07:00:00 5,4 4,8 1,9 7,2 11,4 14,1 3 2 5 3 NW 1020,1 4,2 0 0,0
18.10.2018 06:00:00 5,7 5,2 2,2 7,5 11,5 14,1 3 2 6 3 NW 1020,1 4,1 0 0,0
18.10.2018 05:00:00 5,3 4,9 2,9 7,6 11,7 14,1 3 1 7 4 NW 1020,1 3,6 0 0,0
18.10.2018 04:00:00 4,9 4,7 2,3 7,6 11,9 14,1 3 2 5 3 WNW 1020,5 2,9 0 0,0
18.10.2018 03:00:00 4,4 3,9 1,6 7,8 12,1 14,1 3 2 4 2 WNW 1020,8 3,7 0 0,0
18.10.2018 02:00:00 4,5 3,8 1,3 8,1 12,4 14,1 3 2 4 2 ZW 1020,9 4,2 0 0,0
18.10.2018 01:00:00 4,9 4,4 0,5 8,5 12,6 14,1 3 2 4 2 W 1020,8 4,9 0 0,0
18.10.2018 00:00:00 5,4 4,6 1,1 9,1 12,9 14,1 3 2 6 3 N 1020,7 6 0 0,0
17.10.2018 23:00:00 7,1 5,0 3,3 9,7 13,1 14,1 5 3 12 6 N 1020,1 11 0 0,0
17.10.2018 22:00:00 6,6 5,5 2,3 10,5 13,3 14,1 3 2 8 5 N 1020,4 8 0 0,0
17.10.2018 21:00:00 7,1 5,7 2,8 11,6 13,4 14,1 2 1 6 4 NO 1019,9 9 0 0,0
17.10.2018 20:00:00 9,7 6,6 5,4 12,8 13,5 14,2 4 2 11 6 ONO 1018,8 13 0 0,0
17.10.2018 19:00:00 14,3 7,8 8,7 14,3 13,4 14,2 6 3 14 8 NO 1017,0 21 4 0,0
17.10.2018 18:00:00 16,6 7,9 14,3 16,1 13,2 14,2 9 5 20 11 NO 1016,2 22 52 0,0
17.10.2018 17:00:00 18,4 8,1 19,4 17,3 12,9 14,2 10 6 22 12 ONO 1015,6 27 60 0,0
17.10.2018 16:00:00 19,0 7,6 20,9 17,9 12,4 14,2 14 7 25 14 ONO 1015,7 18 60 0,0
17.10.2018 15:00:00 19,0 7,0 22,2 17,8 12,0 14,2 14 8 24 13 NO 1016,0 19 60 0,0
17.10.2018 14:00:00 18,9 7,9 22,0 16,9 11,5 14,2 12 6 19 11 NO 1016,5 16 60 0,0
17.10.2018 13:00:00 17,4 7,4 21,6 15,2 11,1 14,2 9 5 17 9 NO 1017,6 20 60 0,0
17.10.2018 12:00:00 16,1 5,9 20,5 12,9 10,9 14,2 10 5 14 8 NNO 1018,5 22 60 0,0
17.10.2018 11:00:00 13,1 7,4 16,6 10,2 10,9 14,2 4 2 5 3 WNW 1019,4 17 60 0,0
17.10.2018 10:00:00 9,5 4,9 10,4 7,8 11,0 14,2 2 1 3 2 WNW 1020,6 17 60 0,0
17.10.2018 09:00:00 5,9 4,1 5,1 6,3 11,2 14,2 0 0 3 2 N 1021,7 8 53 0,0
17.10.2018 08:00:00 3,0 2,5 -0,6 6,2 11,4 14,2 0 0 5 3 N 1022,5 4,8 0 0,0
17.10.2018 07:00:00 3,5 3,2 -1,1 6,5 11,6 14,2 3 1 4 2 W 1022,1 11 0 0,0
17.10.2018 06:00:00 2,9 2,2 -0,8 6,8 11,8 14,2 3 2 5 3 NNW 1022,2 7 0 0,0
17.10.2018 05:00:00 3,4 2,7 -0,5 7,2 12,1 14,2 0 0 4 2 N 1022,1 9 0 0,0
17.10.2018 04:00:00 3,6 2,8 -0,2 7,5 12,3 14,2 3 2 5 3 OZO 1022,5 12 0 0,0
17.10.2018 03:00:00 4,0 3,3 0,3 7,9 12,5 14,2 0 0 5 3 N 1022,5 14 0 0,0
17.10.2018 02:00:00 4,7 3,8 0,7 8,3 12,8 14,2 3 2 4 2 ZZO 1022,4 13 0 0,0
17.10.2018 01:00:00 4,9 4,0 1,0 8,8 13,1 14,2 4 2 5 3 Z 1022,2 12 0 0,0
17.10.2018 00:00:00 5,0 3,9 0,8 9,4 13,3 14,2 0 0 3 1 N 1022,0 13 0 0,0
16.10.2018 23:00:00 5,7 4,1 1,8 10,1 13,6 14,2 0 0 4 2 N 1022,0 15 0 0,0
16.10.2018 22:00:00 6,7 5,2 2,4 11,0 13,8 14,2 2 1 8 4 ZO 1021,8 14 0 0,0
16.10.2018 21:00:00 7,0 5,4 4,0 12,0 13,9 14,2 3 2 6 3 Z 1021,6 14 0 0,0
16.10.2018 20:00:00 9,2 6,3 4,5 13,3 14,0 14,2 4 2 7 4 OZO 1020,7 18 0 0,0
16.10.2018 19:00:00 12,0 6,7 7,4 15,0 13,9 14,2 3 1 10 5 O 1019,3 23 20 0,0
16.10.2018 18:00:00 17,9 6,4 16,3 16,8 13,7 14,2 6 3 16 8 NO 1017,4 35 60 0,0
16.10.2018 17:00:00 19,5 6,6 20,8 18,1 13,4 14,2 10 5 16 9 NO 1016,8 31 60 0,0
16.10.2018 16:00:00 20,1 5,7 22,4 18,7 12,9 14,2 11 6 17 9 NO 1016,7 25 60 0,0
16.10.2018 15:00:00 19,9 3,1 23,8 18,3 12,4 14,3 6 3 13 7 NNO 1016,9 37 60 0,0
16.10.2018 14:00:00 19,7 4,3 23,2 17,8 12,0 14,3 8 4 11 6 NNO 1017,3 30 60 0,0
16.10.2018 13:00:00 18,5 5,4 22,9 15,9 11,6 14,3 4 2 9 5 NNW 1017,7 24 60 0,0
16.10.2018 12:00:00 16,9 6,1 20,4 13,5 11,4 14,3 4 2 7 4 NNW 1018,4 23 60 0,0
16.10.2018 11:00:00 14,9 7,2 17,6 10,8 11,3 14,3 2 1 5 3 WNW 1018,7 20 60 0,0
16.10.2018 10:00:00 11,8 5,8 11,9 8,3 11,4 14,3 0 0 3 2 N 1019,6 21 60 0,0
16.10.2018 09:00:00 5,6 2,8 5,0 6,8 11,6 14,3 0 0 4 2 N 1021,3 18 50 0,0
16.10.2018 08:00:00 3,9 2,7 -0,7 6,7 11,9 14,3 2 1 3 2 OZO 1021,3 15 0 0,0
16.10.2018 07:00:00 3,5 2,8 -0,5 7,1 12,1 14,3 0 0 5 3 N 1021,2 18 0 0,0
16.10.2018 06:00:00 3,4 2,7 -0,5 7,4 12,3 14,3 0 0 4 2 N 1020,9 11 0 0,0
16.10.2018 05:00:00 4,6 3,6 0,1 7,8 12,6 14,3 0 0 4 2 N 1020,1 20 0 0,0
16.10.2018 04:00:00 5,2 3,6 0,8 8,2 12,8 14,3 3 1 6 3 OZO 1019,8 18 0 0,0
16.10.2018 03:00:00 6,3 4,7 1,7 8,6 13,1 14,3 4 2 8 5 ZO 1019,3 22 0 0,0
16.10.2018 02:00:00 5,9 4,5 2,3 9,1 13,3 14,3 4 2 8 4 Z 1019,1 17 0 0,0
16.10.2018 01:00:00 6,2 5,4 2,0 9,6 13,6 14,3 3 2 5 3 Z 1018,6 13 0 0,0
16.10.2018 00:00:00 6,0 4,8 1,9 10,3 13,9 14,3 3 1 5 3 O 1018,6 17 0 0,0
15.10.2018 23:00:00 6,8 5,3 3,0 11,0 14,1 14,3 5 3 7 4 ZO 1018,1 21 0 0,0
15.10.2018 22:00:00 7,7 6,0 3,3 11,9 14,3 14,3 0 0 7 4 N 1017,5 22 0 0,0
15.10.2018 21:00:00 7,5 5,5 5,0 12,9 14,5 14,3 4 2 8 5 O 1017,4 22 0 0,0
15.10.2018 20:00:00 10,0 6,8 6,3 14,2 14,5 14,3 4 2 8 4 ZZW 1016,4 31 0 0,0
15.10.2018 19:00:00 14,0 6,8 8,4 16,0 14,4 14,3 3 1 6 3 ZO 1014,9 50 27 0,0
15.10.2018 18:00:00 18,0 9,1 15,5 17,9 14,2 14,3 4 2 8 4 W 1013,0 47 60 0,0
15.10.2018 17:00:00 21,1 2,3 23,2 19,2 13,8 14,3 4 2 12 7 NO 1012,0 64 60 0,0
15.10.2018 16:00:00 21,3 3,2 24,7 19,9 13,3 14,3 7 4 10 6 N 1011,8 45 60 0,0
15.10.2018 15:00:00 21,5 2,5 25,6 19,6 12,7 14,3 5 3 13 7 NW 1011,9 9 60 0,0
15.10.2018 14:00:00 21,2 3,6 24,8 18,4 12,2 14,3 7 4 13 7 NW 1012,1 34 60 0,0
15.10.2018 13:00:00 20,3 5,4 25,1 16,5 11,8 14,3 4 2 9 5 N 1012,7 33 60 0,0
15.10.2018 12:00:00 18,1 6,2 22,3 14,0 11,6 14,3 6 3 8 4 NNW 1013,6 39 60 0,0
15.10.2018 11:00:00 15,5 6,5 18,5 11,2 11,6 14,3 3 2 4 2 NNW 1014,4 28 60 0,0
15.10.2018 10:00:00 12,2 5,7 13,7 8,6 11,7 14,3 0 0 4 2 N 1015,4 34 60 0,0
15.10.2018 09:00:00 7,7 4,7 6,3 7,0 11,9 14,3 0 0 4 2 N 1016,4 21 57 0,0
15.10.2018 08:00:00 3,8 2,2 0,0 6,9 12,1 14,3 0 0 5 3 N 1017,2 28 0 0,0
15.10.2018 07:00:00 3,4 2,0 0,0 7,2 12,3 14,3 0 0 5 3 N 1017,0 27 0 0,0
15.10.2018 06:00:00 3,6 2,1 0,9 7,5 12,6 14,3 3 2 5 3 OZO 1017,1 33 0 0,0
15.10.2018 05:00:00 4,9 3,2 0,0 7,9 12,8 14,3 2 1 7 4 ZZW 1016,6 39 0 0,0
15.10.2018 04:00:00 4,0 2,8 -0,1 8,3 13,1 14,3 2 1 6 3 ZW 1016,9 31 0 0,0
15.10.2018 03:00:00 5,6 3,6 1,2 8,8 13,4 14,3 3 1 6 3 ZO 1016,4 41 0 0,0
15.10.2018 02:00:00 5,0 3,5 1,2 9,3 13,6 14,3 4 2 7 4 ZZW 1016,5 41 0 0,0
15.10.2018 01:00:00 5,5 3,9 1,7 9,9 13,9 14,3 3 2 7 4 ZW 1016,3 39 0 0,0
15.10.2018 00:00:00 6,6 4,7 2,7 10,6 14,2 14,3 3 1 11 6 OZO 1015,8 46 0 0,0
14.10.2018 23:00:00 7,8 5,4 4,7 11,3 14,4 14,3 5 3 7 4 ZZO 1015,2 49 0 0,0
14.10.2018 22:00:00 8,3 4,9 4,1 12,2 14,7 14,3 3 2 11 6 ZZW 1015,0 53 0 0,0
14.10.2018 21:00:00 9,9 6,5 6,2 13,1 14,8 14,3 6 4 10 6 OZO 1014,5 53 0 0,0
14.10.2018 20:00:00 10,7 6,6 6,9 14,5 14,9 14,3 7 4 9 5 OZO 1014,1 53 0 0,0
14.10.2018 19:00:00 13,4 7,1 8,6 16,4 14,8 14,3 4 2 10 6 ZO 1013,2 69 31 0,0
14.10.2018 18:00:00 20,4 6,4 18,0 18,5 14,6 14,3 4 2 10 6 ZW 1010,9 70 60 0,0
14.10.2018 17:00:00 21,6 6,8 23,3 19,7 14,2 14,3 5 3 9 5 O 1010,6 57 60 0,0
14.10.2018 16:00:00 22,5 1,3 25,5 20,3 13,7 14,3 3 2 9 5 NW 1010,5 52 60 0,0
14.10.2018 15:00:00 21,9 2,5 25,5 19,9 13,2 14,3 5 3 13 7 NW 1010,9 56 60 0,0
14.10.2018 14:00:00 20,8 4,9 23,8 18,8 12,7 14,3 6 4 12 7 WNW 1011,5 56 60 0,0
14.10.2018 13:00:00 19,1 5,5 23,3 17,0 12,3 14,3 8 4 11 6 NW 1012,4 28 60 0,0
14.10.2018 12:00:00 17,6 8,2 22,1 14,6 12,1 14,3 3 2 6 3 NW 1013,3 50 60 0,0
14.10.2018 11:00:00 14,7 7,5 18,7 11,8 12,0 14,3 3 1 5 3 WZW 1014,7 47 60 0,0
14.10.2018 10:00:00 11,8 7,0 12,2 9,2 12,1 14,3 0 0 4 2 N 1015,8 56 60 0,0
14.10.2018 09:00:00 7,3 5,8 7,2 7,6 12,4 14,3 2 1 5 3 O 1017,4 29 60 0,0
14.10.2018 08:00:00 4,6 4,1 0,9 7,6 12,6 14,3 3 2 5 3 OZO 1018,2 23 0 0,0
14.10.2018 07:00:00 5,8 5,6 0,5 8,1 12,8 14,3 0 0 8 4 N 1018,2 25 0 0,0
14.10.2018 06:00:00 6,0 5,5 2,2 8,5 13,1 14,3 3 2 5 3 OZO 1018,4 17 0 0,0
14.10.2018 05:00:00 6,7 6,3 3,0 9,0 13,3 14,3 4 2 9 5 ZO 1018,5 16 0 0,0
14.10.2018 04:00:00 7,6 7,3 4,5 9,4 13,6 14,3 5 3 8 5 OZO 1018,6 19 0 0,0
14.10.2018 03:00:00 7,5 7,5 2,5 9,9 13,8 14,3 2 1 6 3 Z 1019,0 1,7 0 0,0
14.10.2018 02:00:00 8,3 8,3 3,4 10,5 14,0 14,3 0 0 4 2 N 1018,8 0,2 0 0,0
14.10.2018 01:00:00 9,4 9,4 5,7 11,0 14,3 14,3 3 1 9 5 ZZO 1018,7 8 0 0,0
14.10.2018 00:00:00 8,9 8,7 5,3 11,6 14,5 14,3 3 2 5 3 ZO 1019,1 4,9 0 0,0
13.10.2018 23:00:00 9,7 9,6 5,6 12,2 14,7 14,3 0 0 4 2 N 1019,3 10 0 0,0
13.10.2018 22:00:00 9,6 9,1 5,9 13,0 14,9 14,3 0 0 8 5 N 1019,5 12 0 0,0
13.10.2018 21:00:00 12,1 10,7 8,2 14,0 15,1 14,3 5 3 9 5 ZO 1019,0 24 0 0,0
13.10.2018 20:00:00 12,6 11,1 8,7 15,2 15,1 14,3 2 1 6 3 OZO 1018,8 26 0 0,0
13.10.2018 19:00:00 15,0 11,2 10,2 16,9 15,0 14,3 4 2 12 6 N 1018,2 31 32 0,0
13.10.2018 18:00:00 19,4 11,8 19,2 18,7 14,8 14,3 7 4 17 9 NO 1017,2 58 60 0,0
13.10.2018 17:00:00 20,9 11,8 22,9 19,9 14,4 14,3 9 5 17 9 NO 1017,0 70 60 0,0
13.10.2018 16:00:00 21,0 11,9 23,8 20,6 13,9 14,3 10 5 18 10 NNO 1017,3 38 60 0,0
13.10.2018 15:00:00 20,7 13,0 24,7 20,3 13,4 14,3 10 5 17 9 NNO 1017,9 23 60 0,0
13.10.2018 14:00:00 20,5 13,0 24,2 19,3 12,9 14,3 9 5 15 8 NNO 1018,6 22 60 0,0
13.10.2018 13:00:00 19,5 10,8 23,6 17,4 12,5 14,3 6 3 13 7 ONO 1019,9 26 60 0,0
13.10.2018 12:00:00 18,2 11,1 21,8 15,2 12,3 14,3 9 5 16 9 ONO 1021,1 28 60 0,0
13.10.2018 11:00:00 15,6 10,6 19,2 12,6 12,2 14,3 3 2 6 3 WNW 1022,3 29 60 0,0

tt = temperatuur
td = dauwpunt
tt 5cm = temperatuur 5cm
tt -5cm = temperatuur -5cm
tt -20cm = temperatuur -20cm
tt -100cm = temperatuur -100cm
ff = windsnelheid
fx = windstoten
dd = windrichting
ppp = luchtdruk
vv = zicht
sd = Zonneschijnduur
rr = neerslag

Weerstations in de omgeving